FENGYUN 1C DEB, 36676

Orbit data source: Space-Track

FENGYUN 1C DEB, 36676 is space debris in SSO originally from a launch on Mon, 10 May 1999 UTC launched from the Taiyaun Space Center, China (TSC). Fengyun 1C debris stems from the Chinese weather satellite Fengyun-1C, which was intentionally destroyed by a Chinese anti-satellite missile in 2007. This event dramatically increased the amount of space debris, with thousands of trackable fragments posing hazards to satellites and human spaceflight. The Fengyun 1C debris cloud has become a focal point in discussions about space sustainability and the need for international regulations to prevent the creation of new debris.

Loading next visibility...
Identifier
36676, 1999-025DYW
Orbit
SSO
Country
Flag of CNCN / PRC
Related business
Manufacturer
Unknown
Mission
Spacecraft
Bus & Motor
Unknown
Mass
Unknown
Launch date (UTC)
Icon of a cake. It is the launch day of the satellite!1999-05-10 (27 years ago)
Launch vehicle
Unknown
Launch site
Taiyaun Space Center, China (TSC)
Object type
Payload
Rocket body
Debris
Shape & HBR
Unknown shape, 0.1 m
Radar Cross Section
Small (<0.1 m²)

Expand to show TLE details & history
Last TLE update: 5 months ago

TLE from 5 months ago
0 FENGYUN 1C DEB
1 36676U 99025DYW 25346.50217868  .00002250  00000-0  64689-3 0  9995
2 36676  98.7673 245.9859 0095577 132.3194  40.1509 14.43199836650624
Epoch: 2025-12-12T12:03Z
TLE epoch observation values (Epoch: 2025-12-12T12:03:08.237Z)
Latitude
6.66097°
Longitude
164.78513°
Altitude
698.476 km
Speed
7.535 km/s
True Right ascension
04h 28m 02s
True Declination
6° 37' 16"
Sunlit
Object was in full shadow at epoch
Visualization orbit readout
Latitude
Unknown
Longitude
Unknown
Altitude
Unknown
Speed
Unknown
Apparent Right ascension
Unknown
Apparent Declination
Unknown
Sunlit
N/A
Visualization observer readout
Local Sidereal Time
21:27:20
Azimuth
Unknown
Elevation
Unknown
Doppler factor
Unknown
Orbital elements
Apogee altitude
813.157 km
Perigee altitude
676.994 km
Semi-major axis
7,123.213 km
Eccentricity
0.00956
Inclination
98.7673°
RAAN
245.9859°
Arg. of periapsis
132.3194°
True anomaly
40.8636°
Mean anomaly
40.1509°
Eccentric anomaly
40.5066°
Mean motion
3.61018 °/min
Orbital period
99.72 mins
BSTAR
0.00064689
Loading maneuver chart data...
Computing Atmospheric mass density...

Documentation

Showing up to 5 results
|